"Time","Temp","Dewpoint","Humidity","Pressure","Direction","Speed","Gust","Precip","PrecipRate"
"00:04:57","74.1","70.7","89.2","29.98","178","0","0","0.00","0.00"
"00:09:56","74","70.6","89","29.98","178","0","0","0.00","0.00"
"00:14:56","73.9","70.5","89","29.98","178","0","0","0.00","0.00"
"00:19:57","73.8","70.4","89","29.98","178","0","0","0.00","0.00"
"00:24:58","73.7","70.6","90","29.98","178","0","0","0.00","0.00"
"00:29:56","73.6","70.5","90","29.98","178","0","0","0.00","0.00"
"00:34:58","73.5","70.4","90","29.97","178","0","0","0.00","0.00"
"00:39:56","73.3","70.2","89.9","29.97","178","0","0","0.00","0.00"
"00:44:57","73.2","69.8","89","29.97","178","0","0","0.00","0.00"
"00:49:59","73.1","69.7","89","29.97","178","0","0","0.00","0.00"
"00:54:56","73","69.6","89","29.97","178","0","0","0.00","0.00"
"00:59:57","73","69.6","89","29.98","178","0","0","0.00","0.00"
"01:04:58","73","69.1","87.7","29.98","178","0","0","0.00","0.00"
"01:09:56","73.2","69.1","87","29.98","178","0","0","0.00","0.00"
"01:14:58","73.2","69.1","87","29.98","178","0","0","0.00","0.00"
"01:19:56","73.1","69","87","29.97","178","0","0","0.00","0.00"
"01:24:57","73","68.8","86.6","29.97","178","0","0","0.00","0.00"
"01:29:58","73","68.6","86","29.97","178","0","0","0.00","0.00"
"01:34:59","73","68.3","85.3","29.97","178","0","0","0.00","0.00"
"01:39:57","73","68.2","85","29.97","178","0","0","0.00","0.00"
"01:44:59","73","68.2","85","29.97","178","0","0","0.00","0.00"
"01:49:56","72.9","68.2","85.3","29.97","178","0","0","0.00","0.00"
"01:54:57","72.8","68.4","86","29.97","178","0","0","0.00","0.00"
"01:59:59","72.7","68.3","86","29.97","178","0","0","0.00","0.00"
"02:04:56","72.5","68.1","86","29.97","178","0","0","0.00","0.00"
"02:09:58","72.4","68","86","29.97","179","0","0","0.00","0.00"
"02:14:56","72.3","67.9","86","29.97","178","0","0","0.00","0.00"
"02:19:57","72.2","67.9","86.5","29.96","178","0","0","0.00","0.00"
"02:24:59","72","67.9","87","29.96","178","0","0","0.00","0.00"
"02:29:57","71.9","67.8","87","29.96","178","0","0","0.00","0.00"
"02:34:58","71.8","67.7","87","29.96","178","0","0","0.00","0.00"
"02:39:57","71.6","67.6","87.2","29.96","178","0","0","0.00","0.00"
"02:44:58","71.4","67.7","88","29.96","179","0","0","0.00","0.00"
"02:49:59","71.3","67.7","88.4","29.96","178","0","0","0.00","0.00"
"02:54:57","71.1","67.7","89","29.96","178","0","0","0.00","0.00"
"02:59:58","70.9","67.5","89","29.96","178","0","0","0.00","0.00"
"03:04:59","70.8","67.4","89","29.96","178","0","0","0.00","0.00"
"03:09:57","70.6","67.2","89","29.96","178","0","0","0.00","0.00"
"03:14:56","70.6","67.2","89","29.96","178","0","0","0.00","0.00"
"03:19:57","70.5","67.1","89","29.96","178","0","0","0.00","0.00"
"03:24:56","70.4","67","89","29.96","178","0","0","0.00","0.00"
"03:29:57","70.4","67","89","29.96","178","0","0","0.00","0.00"
"03:34:59","70.5","67.1","89","29.96","178","0","0","0.00","0.00"
"03:39:57","70.5","67","88.6","29.96","178","0","0","0.00","0.00"
"03:44:58","70.4","66.7","88","29.96","178","0","0","0.00","0.00"
"03:49:56","70.4","66.8","88.5","29.96","178","0","0","0.00","0.00"
"03:54:57","70.3","66.9","89","29.96","178","0","0","0.00","0.00"
"03:59:58","70.3","66.9","89","29.96","178","0","0","0.00","0.00"
"04:04:59","70.1","66.7","89","29.96","178","0","0","0.00","0.00"
"04:09:57","70.1","66.7","89","29.96","179","0","0","0.00","0.00"
"04:14:59","70","66.6","89","29.96","178","0","0","0.00","0.00"
"04:19:56","69.9","66.5","89","29.96","178","0","0","0.00","0.00"
"04:24:58","69.9","66.5","89","29.96","178","0","0","0.00","0.00"
"04:29:59","69.8","66.4","89","29.96","178","0","0","0.00","0.00"
"04:34:57","69.8","66.4","89","29.96","178","0","0","0.00","0.00"
"04:39:59","69.8","66.4","89","29.96","178","0","0","0.00","0.00"
"04:44:56","69.7","66.3","89","29.96","178","0","0","0.00","0.00"
"04:49:58","69.7","66.3","89","29.96","178","0","0","0.00","0.00"
"04:54:59","69.6","66.2","89","29.96","178","0","0","0.00","0.00"
"04:59:57","69.5","66.1","89","29.96","178","0","0","0.00","0.00"
"05:04:54","69.5","66.1","89","29.96","178","0","0","0.00","0.00"
"05:09:59","69.4","66","89","29.96","178","0","0","0.00","0.00"
"05:14:58","69.3","65.9","89","29.96","178","0","0","0.00","0.00"
"05:19:59","69.1","66","89.8","29.96","178","0","0","0.00","0.00"
"05:24:56","69","65.9","90","29.96","178","0","0","0.00","0.00"
"05:29:58","68.9","65.8","90","29.96","178","0","0","0.00","0.00"
"05:34:56","68.8","65.7","90","29.96","173","0","0","0.00","0.00"
"05:39:58","68.7","65.6","90","29.96","173","0","0","0.00","0.00"
"05:44:59","68.6","65.6","90.3","29.96","173","0","0","0.00","0.00"
"05:49:57","68.6","65.9","91","29.96","173","0","0","0.00","0.00"
"05:54:58","68.5","65.8","91","29.96","173","0","0","0.00","0.00"
"05:59:56","68.4","65.7","91","29.96","173","0","0","0.00","0.00"
"06:04:57","68.3","65.6","91","29.96","173","0","0","0.00","0.00"
"06:09:56","68.4","65.7","91","29.96","173","0","0","0.00","0.00"
"06:14:58","68.4","65.7","91","29.96","173","0","0","0.00","0.00"
"06:19:57","68.6","65.5","90.2","29.96","173","0","0","0.00","0.00"
"06:24:58","68.8","65.7","90","29.96","173","0","0","0.00","0.00"
"06:29:59","69","65.8","89.6","29.97","175","0","0","0.00","0.00"
"06:34:56","69.4","65.8","88.4","29.97","179","0","0","0.00","0.00"
"06:39:58","70","66.1","87.5","29.97","178","0","0","0.00","0.00"
"06:44:59","70.5","66.2","86.5","29.97","273","0","0","0.00","0.00"
"06:49:56","70.9","66.5","86","29.97","273","0","0","0.00","0.00"
"06:54:57","71.1","66.7","85.9","29.97","273","0","0","0.00","0.00"
"06:59:58","71.3","66.7","85.4","29.97","273","0","0","0.00","0.00"
"07:04:58","71.6","66.8","84.9","29.97","273","0","0","0.00","0.00"
"07:09:56","72","66.8","83.8","29.97","273","0","0","0.00","0.00"
"07:14:58","72.6","67.3","83.5","29.97","273","0","0","0.00","0.00"
"07:19:59","73.3","67.5","82.1","29.96","274","0","0","0.00","0.00"
"07:24:56","74.1","67.8","80.9","29.96","275","0","0","0.00","0.00"
"07:29:57","74.7","68","79.8","29.97","278","0","0","0.00","0.00"
"07:34:58","75.4","68.4","79.1","29.97","268","0.8","3.5","0.00","0.00"
"07:39:56","76","68.5","77.7","29.97","301","1.6","4","0.00","0.00"
"07:44:57","76.4","69","77.8","29.97","305","1.3","4","0.00","0.00"
"07:49:59","76.8","68.8","76.3","29.97","266","1.6","5","0.00","0.00"
"07:54:56","77.1","68.9","75.9","29.97","271","1.5","3.5","0.00","0.00"
"07:59:57","77.3","69.1","75.7","29.97","274","1.2","5","0.00","0.00"
"08:04:54","77.6","69","74.9","29.97","251","1.6","4","0.00","0.00"
"08:09:59","77.9","69.2","74.5","29.97","303","1.7","5","0.00","0.00"
"08:14:57","78.3","69.4","74.1","29.97","300","1.6","5","0.00","0.00"
"08:19:59","78.8","69.7","73.8","29.97","261","1.1","3.5","0.00","0.00"
"08:24:57","79.2","69.8","72.8","29.97","263","1.9","4","0.00","0.00"
"08:29:59","79.6","70.1","72.8","29.97","302","2","6","0.00","0.00"
"08:34:58","79.8","70","71.9","29.97","317","3.3","6","0.00","0.00"
"08:39:56","80.2","70.3","72","29.97","281","1.8","7","0.00","0.00"
"08:44:59","80.4","70.4","71.7","29.97","268","1.7","6","0.00","0.00"
"08:49:57","80.7","70.8","72","29.97","284","1.2","3.5","0.00","0.00"
"08:54:59","81","70.8","71.3","29.97","296","2.3","5","0.00","0.00"
"08:59:57","81.1","70.6","70.5","29.97","270","2.2","5","0.00","0.00"
"09:04:59","81.3","70.8","70.6","29.97","314","2.2","5","0.00","0.00"
"09:09:58","81.5","71.1","70.8","29.97","244","2.4","5","0.00","0.00"
"09:14:57","81.8","71.6","71.4","29.97","237","2","7","0.00","0.00"
"09:19:56","82.1","71.8","71.1","29.97","273","2.5","6.9","0.00","0.00"
"09:24:58","82.4","71.8","70.3","29.97","262","2.4","7","0.00","0.00"
"09:29:56","82.7","71.8","69.7","29.97","292","2.8","12","0.00","0.00"
"09:34:58","82.9","71.8","69.3","29.96","293","2","4","0.00","0.00"
"09:39:57","83.2","72","69.2","29.96","302","2.2","6","0.00","0.00"
"09:44:59","83.5","72","68.5","29.96","262","2.5","9.2","0.00","0.00"
"09:49:58","83.8","72.2","68.2","29.96","310","2.7","7","0.00","0.00"
"09:54:56","84","71.9","67.1","29.96","331","2.4","6","0.00","0.00"
"09:59:58","84.2","72.9","68.9","29.96","329","1","3.5","0.00","0.00"
"10:04:56","84.6","72.2","66.7","29.96","296","2.7","8.1","0.00","0.00"
"10:09:59","84.6","72.2","66.5","29.96","300","2.4","5.8","0.00","0.00"
"10:14:58","84.8","73","67.8","29.96","287","2.1","5","0.00","0.00"
"10:19:56","85.1","72.9","66.9","29.96","295","1.7","5","0.00","0.00"
"10:24:58","85.4","72.8","66.1","29.96","235","2.6","7","0.00","0.00"
"10:29:57","85.7","72.9","65.7","29.96","196","2","6","0.00","0.00"
"10:34:59","85.9","72.3","64","29.95","304","3.3","11.5","0.00","0.00"
"10:39:58","86.1","73.2","65.5","29.95","317","1.9","4.6","0.00","0.00"
"10:44:56","86.4","73","64.5","29.95","318","2.7","6","0.00","0.00"
"10:49:59","86.6","72.3","62.8","29.95","317","2.9","7","0.00","0.00"
"10:54:57","86.7","72.8","63.4","29.95","314","2.6","6","0.00","0.00"
"10:59:55","86.8","72.7","63","29.95","265","2.7","7","0.00","0.00"
"11:04:58","87.1","73.1","63.3","29.95","292","2.3","6","0.00","0.00"
"11:09:58","87.5","73.9","64.1","29.95","323","2.4","8.1","0.00","0.00"
"11:14:58","87.9","73.4","62.3","29.95","333","3.6","14","0.00","0.00"
"11:19:59","87.8","73.1","61.8","29.95","335","2","9.2","0.00","0.00"
"11:24:57","87.9","72.7","60.8","29.95","330","3.1","6","0.00","0.00"
"11:29:55","88","72.9","61","29.95","304","2.2","5","0.00","0.00"
"11:34:58","88.1","72.8","60.7","29.95","268","2.7","7","0.00","0.00"
"11:39:57","88.2","73.1","61.1","29.95","236","2.1","5","0.00","0.00"
"11:44:59","88.4","72.6","59.8","29.95","262","2.2","4","0.00","0.00"
"11:49:57","88.7","73.8","61.7","29.94","271","2.1","6","0.00","0.00"
"11:54:59","89","73.8","61.1","29.94","277","2.4","5","0.00","0.00"
"11:59:57","89","73.3","59.9","29.94","321","2.1","5","0.00","0.00"
"12:04:59","88.9","73","59.6","29.94","233","3.1","5","0.00","0.00"
"12:09:58","88.6","72.9","60.1","29.94","294","2.2","6","0.00","0.00"
"12:14:58","88.7","72.4","58.8","29.94","329","3.9","7","0.00","0.00"
"12:19:56","89","74","61.5","29.93","247","2.7","7","0.00","0.00"
"12:24:55","89.2","73","59.1","29.93","233","3.3","7","0.00","0.00"
"12:29:58","89","72.3","58","29.93","241","2.6","6","0.00","0.00"
"12:34:56","88.8","72.3","58.5","29.93","264","2.5","5","0.00","0.00"
"12:39:56","88.8","72.3","58.4","29.93","229","2.4","5","0.00","0.00"
"12:44:58","88.6","71.7","57.6","29.93","254","1.8","6","0.00","0.00"
"12:49:58","88.7","71","56.1","29.92","250","1.9","4","0.00","0.00"
"12:54:56","88.9","71.9","57.4","29.92","293","2.1","5","0.00","0.00"
"12:59:58","89.3","72.3","57.4","29.92","239","1.6","3.5","0.00","0.00"
"13:04:52","89.8","73.1","58.1","29.92","269","1.4","4","0.00","0.00"
"13:09:59","90.1","73.5","58.4","29.92","182","2.6","7","0.00","0.00"
"13:14:58","90","73.3","58.1","29.92","342","2.1","6.9","0.00","0.00"
"13:19:56","89.8","72.8","57.7","29.92","319","2.5","5","0.00","0.00"
"13:24:34","89.8","73.3","58.5","29.92","222","1.7","4.6","0.00","0.00"
"13:28:55","89.9","73.9","59.4","29.92","227","1.1","3.5","0.00","0.00"
"13:34:59","89.6","72.1","56.5","29.91","278","1.5","5","0.00","0.00"
"13:39:42","89.3","72.2","57.3","29.91","234","2","5","0.00","0.00"
"13:44:48","88.5","71.8","58","29.91","299","1.4","4","0.00","0.00"
"13:49:58","88.1","71","57.1","29.90","296","1.9","5","0.00","0.00"
"13:54:57","87.9","71.4","58.2","29.90","301","1.2","4.6","0.00","0.00"
"13:58:29","88.3","73.2","61.1","29.90","301","1.2","3.5","0.00","0.00"
"14:04:20","89.2","73.7","60.3","29.90","242","2.4","5.8","0.00","0.00"
"14:09:56","89.8","72.3","56.7","29.90","215","3.1","5.8","0.00","0.00"
"14:14:59","89.9","72.4","56.5","29.90","289","2.9","5.8","0.00","0.00"
"14:19:57","90","72.3","56.3","29.90","328","2.9","9.2","0.00","0.00"
"14:24:59","90.3","71.6","54.4","29.90","312","2.2","6","0.00","0.00"
"14:29:57","90.7","72.1","54.7","29.90","260","2.8","7","0.00","0.00"
"14:34:59","90.6","71","52.8","29.89","235","2.5","6.9","0.00","0.00"
"14:39:58","90.3","71.2","53.7","29.89","305","2.7","6","0.00","0.00"
"14:44:57","90.5","72.7","56.1","29.89","257","2.8","5","0.00","0.00"
"14:49:59","90.9","71","52.2","29.88","233","3","6","0.00","0.00"
"14:54:57","91.2","72.1","53.8","29.88","279","2.6","9","0.00","0.00"
"14:59:59","91.3","71.6","52.7","29.88","299","2.1","9.2","0.00","0.00"
"15:04:57","91.2","72.8","54.9","29.87","338","2","8.1","0.00","0.00"
"15:09:56","90.4","73.3","57.4","29.87","346","1.6","3.5","0.00","0.00"
"15:14:59","90.3","74.2","59.4","29.87","321","1.4","5","0.00","0.00"
"15:19:58","90.6","74.1","58.6","29.87","318","1.7","3.5","0.00","0.00"
"15:24:57","91","73.2","56.3","29.87","247","1.1","4","0.00","0.00"
"15:29:59","91.5","73.8","56.4","29.87","325","0.9","3.5","0.00","0.00"
"15:34:57","91.9","73.1","54.3","29.86","297","0.8","3","0.00","0.00"
"15:39:57","92","72.6","53.5","29.86","295","1.4","4","0.00","0.00"
"15:44:59","92","74.9","57.6","29.86","331","0.8","2.3","0.00","0.00"
"15:49:57","92","73.9","55.8","29.85","331","1.4","3.5","0.00","0.00"
"15:54:59","91.9","72","52.5","29.85","294","2","6","0.00","0.00"
"15:59:57","91.4","71.4","52.2","29.85","320","1.3","4","0.00","0.00"
"16:04:59","91.4","73.3","55.5","29.85","306","1","5","0.00","0.00"
"16:09:59","91.8","73.1","54.7","29.85","223","2.2","4.6","0.00","0.00"
"16:14:59","91.9","73.3","54.8","29.85","265","2.3","6","0.00","0.00"
"16:19:57","92.2","73.3","54.3","29.84","310","1.8","5.8","0.00","0.00"
"16:24:59","92.4","72.7","53","29.84","293","2.2","7","0.00","0.00"
"16:29:58","92.3","73.7","54.8","29.84","294","2.5","6.9","0.00","0.00"
"16:34:56","92.3","73.2","53.9","29.84","232","2.8","7","0.00","0.00"
"16:39:59","92.3","72.9","53.3","29.84","216","3.3","10.4","0.00","0.00"
"16:44:57","92.2","71.7","51.5","29.84","227","2.5","6","0.00","0.00"
"16:49:59","92.2","72.5","52.8","29.84","240","2.7","7","0.00","0.00"
"16:54:58","92.3","72.6","52.9","29.84","244","1.9","6","0.00","0.00"
"16:59:56","92.5","72.7","52.6","29.84","189","2.7","7","0.00","0.00"
"17:04:58","92.6","72.2","51.8","29.83","285","2.4","6.9","0.00","0.00"
"17:09:58","92.6","72.8","52.8","29.83","219","3.3","7","0.00","0.00"
"17:14:57","92.3","72.2","52.2","29.83","205","3.4","6.9","0.00","0.00"
"17:19:59","92","72.3","52.7","29.83","182","3.8","9.2","0.00","0.00"
"17:24:57","91.9","72.3","52.9","29.83","216","2.7","5.8","0.00","0.00"
"17:29:59","91.8","72.1","52.6","29.83","211","2.7","6","0.00","0.00"
"17:34:57","91.9","72.2","52.9","29.82","240","2.5","6","0.00","0.00"
"17:39:56","91.8","72.7","53.9","29.82","192","2.8","5","0.00","0.00"
"17:44:59","91.7","72.2","53.1","29.82","195","3.5","9.2","0.00","0.00"
"17:49:57","91.6","72.2","53.4","29.82","195","2.8","6","0.00","0.00"
"17:54:59","91.3","72.1","53.5","29.82","198","3","6","0.00","0.00"
"17:59:57","91","71.9","53.6","29.82","207","2.6","6","0.00","0.00"
"18:04:59","91","71.5","53","29.81","199","2.6","5","0.00","0.00"
"18:09:58","90.9","72","54.1","29.81","216","1.8","4.6","0.00","0.00"
"18:14:57","90.8","71.4","53.2","29.81","212","2.5","6","0.00","0.00"
